This is the latest recevied weather packets stored in our database for station/object W1RCP. If no packets are shown the sender has not sent any weather packets the latest 10 day(s).
| Time | Temp. | Humidity | Pressure | Rain* | Wind** | Luminosity | Snow |
|---|---|---|---|---|---|---|---|
| 1787844944 | 31.11° C | 68% | 1027.5 hPa | 0 mm | - | 699 W/m² | - |
| 1787844644 | 30.56° C | 70% | 1027.5 hPa | 0 mm | - | 729 W/m² | - |
| 1787844344 | 31.11° C | 68% | 1027.7 hPa | 0 mm | - | 604 W/m² | - |
| 1787844043 | 30.56° C | 72% | 1027.7 hPa | 0 mm | - | 730 W/m² | - |
| 1787843738 | 30° C | 71% | 1027.7 hPa | 0 mm | - | 676 W/m² | - |
| 1787843433 | 30.56° C | 70% | 1027.6 hPa | 0 mm | - | 285 W/m² | - |
| 1787843131 | 30° C | 70% | 1027.5 hPa | 0 mm | - | 660 W/m² | - |
| 1787842830 | 30° C | 71% | 1027.6 hPa | 0 mm | - | 646 W/m² | - |
| 1787842525 | 30.56° C | 70% | 1027.7 hPa | 0 mm | - | 611 W/m² | - |
| 1787842224 | 30.56° C | 69% | 1027.5 hPa | 0 mm | - | 412 W/m² | - |
| 1787841919 | 30.56° C | 71% | 1027.7 hPa | 0 mm | - | 634 W/m² | - |
| 1787841616 | 30.56° C | 73% | 1027.6 hPa | 0 mm | - | 623 W/m² | - |
| 1787841314 | 30.56° C | 75% | 1027.6 hPa | 0 mm | - | 582 W/m² | - |
| 1787841009 | 29.44° C | 77% | 1027.5 hPa | 0 mm | - | 557 W/m² | - |
| 1787840704 | 29.44° C | 77% | 1027.4 hPa | 0 mm | - | 265 W/m² | - |
| 1787840399 | 29.44° C | 79% | 1027.4 hPa | 0 mm | - | 530 W/m² | - |
| 1787840095 | 29.44° C | 79% | 1027.4 hPa | 0 mm | - | 414 W/m² | - |
| 1787839794 | 29.44° C | 78% | 1027.2 hPa | 0 mm | - | 463 W/m² | - |
| 1787839489 | 29.44° C | 80% | 1027.4 hPa | 0 mm | - | 450 W/m² | - |
| 1787839189 | 29.44° C | 81% | 1027.1 hPa | 0 mm | - | 382 W/m² | - |
| 1787838889 | 28.89° C | 80% | 1027.2 hPa | 0 mm | - | 368 W/m² | - |
| 1787838588 | 28.89° C | 82% | 1026.9 hPa | 0 mm | - | 333 W/m² | - |
| 1787838287 | 28.33° C | 83% | 1027 hPa | 0 mm | - | 304 W/m² | - |
| 1787837986 | 28.33° C | 82% | 1026.8 hPa | 0 mm | - | 266 W/m² | - |
| 1787837686 | 28.33° C | 83% | 1027 hPa | 0 mm | - | 241 W/m² | - |
* Rain latest hour (hover to see other rain measurements)
** Current wind speed in m/s (hover to see current wind gust speed)